Location: Gleizolles
(44.4833°N, 6.7667°E)
Time: 03:31:49
(UTC+00:00)

Vanguard 1 Rocket - Pass Details

Date: 29 June 2024
Orbit: 650 x 4219 km, 34.3° (Epoch: 15 July)

Event Time Altitude Azimuth Distance (km) Brightness Sun altitude
Rises 02:06:39 0° 260° (W) 5,365 10.9 -14.1°
Reaches altitude 10° 02:09:32 10° 257° (WSW) 4,727 10.6 -13.8°
Maximum altitude 02:24:01 61° 182° (S) 3,594 10.1 -12.2°
Drops below altitude 10° 02:48:18 10° 110° (ESE) 7,410 12.3 -9.4°
Sets 02:54:21 0° 108° (ESE) 8,446 12.7 -8.6°
